User: anonymous   Login
Location: UBC Liquid-Mirror Observatory
(49.2876°N, 122.5728°W)
Time: 11:58:31
(UTC-07:00)
Language:

Cosmos 1315 - Orbit

View from above orbital plane
View from above orbital plane
View from above satellite
View from above satellite

Ground track
Ground track

The orbit data is extracted from the following two-line orbital elements,

1 12903U 81103A   14297.15795171  .00043744  00000-0  69187-3 0  3133
2 12903 081.1335 351.2021 0004450 182.5929 205.1498 15.53254360810283
Epoch (UTC): 24 October 2014 03:47:27
Eccentricity: 0.0004450
inclination: 81.1335°
perigee height: 404 km
apogee height: 410 km
right ascension of ascending node: 351.2021°
argument of perigee: 182.5929°
revolutions per day: 15.53254360
mean anomaly at epoch: 205.1498°
orbit number at epoch: 81028

The dashed part of the orbit path shows where the satellite is in the earth's shadow,  

DLR